Time,TemperatureF,DewpointF,PressureIn,WindDirection,WindDirectionDegrees,WindSpeedMPH,WindSpeedGustMPH,Humidity,HourlyPrecipIn,Conditions,Clouds,dailyrainin,SoftwareType,DateUTC
2013-01-07 00:00:00,24.8,19.8,28.94,SW,227,0.0,8.1,81,0.00,,CLR,0.00,VWS V14.01,2013-01-07 06:00:00,
2013-01-07 00:15:00,24.8,19.8,28.94,WSW,254,0.0,0.0,81,0.00,,CLR,0.00,VWS V14.01,2013-01-07 06:15:00,
2013-01-07 00:30:00,24.6,19.6,28.94,WSW,251,0.0,0.0,81,0.00,,CLR,0.00,VWS V14.01,2013-01-07 06:30:00,
2013-01-07 00:45:00,24.8,19.8,28.94,WSW,250,0.0,0.0,81,0.00,,CLR,0.00,VWS V14.01,2013-01-07 06:45:00,
2013-01-07 01:00:00,24.8,19.8,28.94,SW,228,0.0,8.1,81,0.00,,CLR,0.00,VWS V14.01,2013-01-07 07:00:00,
2013-01-07 01:15:00,25.2,20.2,28.94,WSW,238,0.0,9.4,81,0.00,,CLR,0.00,VWS V14.01,2013-01-07 07:15:00,
2013-01-07 01:30:00,25.7,21.0,28.91,WSW,245,0.0,16.8,82,0.00,,CLR,0.00,VWS V14.01,2013-01-07 07:30:00,
2013-01-07 01:45:00,25.9,21.4,28.91,SW,236,0.0,8.1,83,0.00,,CLR,0.00,VWS V14.01,2013-01-07 07:45:00,
2013-01-07 02:00:00,26.1,21.6,28.91,WSW,258,0.0,12.1,83,0.00,,CLR,0.00,VWS V14.01,2013-01-07 08:00:00,
2013-01-07 02:15:00,26.2,21.8,28.91,SW,236,0.0,0.0,83,0.00,,CLR,0.00,VWS V14.01,2013-01-07 08:15:00,
2013-01-07 02:30:00,26.4,22.0,28.91,WSW,237,0.0,9.4,83,0.00,,CLR,0.00,VWS V14.01,2013-01-07 08:30:00,
2013-01-07 02:45:00,26.4,21.7,28.91,SW,227,0.0,13.4,82,0.00,,CLR,0.00,VWS V14.01,2013-01-07 08:45:00,
2013-01-07 03:00:00,26.6,21.6,28.91,SW,231,0.0,9.4,81,0.00,,CLR,0.00,VWS V14.01,2013-01-07 09:00:00,
2013-01-07 03:15:00,26.6,21.6,28.91,WSW,238,0.0,8.1,81,0.00,,CLR,0.00,VWS V14.01,2013-01-07 09:15:00,
2013-01-07 03:30:00,26.8,21.5,28.88,SW,230,13.4,13.4,80,0.00,,CLR,0.00,VWS V14.01,2013-01-07 09:30:00,
2013-01-07 03:45:00,27.1,21.5,28.88,WSW,247,0.0,22.1,79,0.00,,CLR,0.00,VWS V14.01,2013-01-07 09:45:00,
2013-01-07 04:00:00,27.7,21.7,28.88,West,267,0.0,18.1,78,0.00,,CLR,0.00,VWS V14.01,2013-01-07 10:00:00,
2013-01-07 04:15:00,28.2,22.0,28.88,SW,233,0.0,16.8,77,0.00,,CLR,0.00,VWS V14.01,2013-01-07 10:15:00,
2013-01-07 04:30:00,28.4,21.8,28.88,SW,236,0.0,22.1,76,0.00,,CLR,0.00,VWS V14.01,2013-01-07 10:30:00,
2013-01-07 04:45:00,28.2,21.3,28.85,WSW,240,10.7,15.4,75,0.00,,CLR,0.00,VWS V14.01,2013-01-07 10:45:00,
2013-01-07 05:00:00,28.4,21.2,28.85,WSW,237,12.1,15.4,74,0.00,,CLR,0.00,VWS V14.01,2013-01-07 11:00:00,
2013-01-07 05:15:00,28.4,20.9,28.85,WSW,248,0.0,15.4,73,0.00,,CLR,0.00,VWS V14.01,2013-01-07 11:15:00,
2013-01-07 05:30:00,28.6,20.7,28.85,WSW,237,8.1,16.8,72,0.00,,CLR,0.00,VWS V14.01,2013-01-07 11:30:00,
2013-01-07 05:45:00,28.4,20.2,28.85,WSW,246,0.0,15.4,71,0.00,,CLR,0.00,VWS V14.01,2013-01-07 11:45:00,
2013-01-07 06:00:00,28.2,20.0,28.85,SW,232,0.0,18.1,71,0.00,,CLR,0.00,VWS V14.01,2013-01-07 12:00:00,
2013-01-07 06:15:00,27.9,19.7,28.85,SW,232,0.0,15.4,71,0.00,,CLR,0.00,VWS V14.01,2013-01-07 12:15:00,
2013-01-07 06:30:00,27.7,19.9,28.85,SW,233,0.0,8.1,72,0.00,,CLR,0.00,VWS V14.01,2013-01-07 12:30:00,
2013-01-07 06:45:00,27.1,19.3,28.85,WSW,249,0.0,8.1,72,0.00,,CLR,0.00,VWS V14.01,2013-01-07 12:45:00,
2013-01-07 07:00:00,26.6,19.1,28.85,WSW,247,0.0,0.0,73,0.00,,CLR,0.00,VWS V14.01,2013-01-07 13:00:00,
2013-01-07 07:15:00,27.1,20.0,28.85,SW,234,0.0,0.0,74,0.00,,CLR,0.00,VWS V14.01,2013-01-07 13:15:00,
2013-01-07 07:30:00,27.5,20.6,28.85,WSW,251,0.0,0.0,75,0.00,,CLR,0.00,VWS V14.01,2013-01-07 13:30:00,
2013-01-07 07:45:00,28.4,21.8,28.85,WSW,238,0.0,9.4,76,0.00,,CLR,0.00,VWS V14.01,2013-01-07 13:45:00,
2013-01-07 08:00:00,29.1,22.2,28.85,WSW,244,0.0,8.1,75,0.00,,CLR,0.00,VWS V14.01,2013-01-07 14:00:00,
2013-01-07 08:15:00,30.2,22.9,28.85,WSW,258,0.0,16.8,74,0.00,,BKN250,0.00,VWS V14.01,2013-01-07 14:15:00,
2013-01-07 08:30:00,31.1,23.1,28.85,West,265,0.0,15.4,72,0.00,,BKN250,0.00,VWS V14.01,2013-01-07 14:30:00,
2013-01-07 08:45:00,31.8,22.8,28.85,SW,236,0.0,12.1,69,0.00,,BKN250,0.00,VWS V14.01,2013-01-07 14:45:00,
2013-01-07 09:00:00,32.7,23.3,28.85,SW,228,0.0,18.1,68,0.00,,BKN250,0.00,VWS V14.01,2013-01-07 15:00:00,
2013-01-07 09:15:00,33.3,22.8,28.85,WSW,239,0.0,23.5,65,0.00,,BKN250,0.00,VWS V14.01,2013-01-07 15:15:00,
2013-01-07 09:30:00,33.8,22.5,28.88,SW,234,12.1,22.1,63,0.00,,BKN250,0.00,VWS V14.01,2013-01-07 15:30:00,
2013-01-07 09:45:00,34.3,23.1,28.88,WSW,241,0.0,24.8,63,0.00,,BKN250,0.00,VWS V14.01,2013-01-07 15:45:00,
2013-01-07 10:00:00,34.7,23.0,28.88,WSW,258,0.0,14.1,62,0.00,,BKN250,0.00,VWS V14.01,2013-01-07 16:00:00,
2013-01-07 10:15:00,35.1,23.4,28.88,SW,227,0.0,19.5,62,0.00,,BKN250,0.00,VWS V14.01,2013-01-07 16:15:00,
2013-01-07 10:30:00,35.4,24.1,28.88,SW,233,0.0,14.1,63,0.00,,BKN250,0.00,VWS V14.01,2013-01-07 16:30:00,
2013-01-07 10:45:00,35.8,25.2,28.88,WSW,251,0.0,12.1,65,0.00,,BKN250,0.00,VWS V14.01,2013-01-07 16:45:00,
2013-01-07 11:00:00,36.3,25.7,28.88,SW,229,0.0,23.5,65,0.00,,BKN250,0.00,VWS V14.01,2013-01-07 17:00:00,
2013-01-07 11:15:00,37.0,26.4,28.88,SW,236,0.0,18.1,65,0.00,,BKN250,0.00,VWS V14.01,2013-01-07 17:15:00,
2013-01-07 11:30:00,37.2,26.5,28.88,WSW,237,0.0,18.1,65,0.00,,BKN250,0.00,VWS V14.01,2013-01-07 17:30:00,
2013-01-07 11:45:00,37.4,26.7,28.85,WSW,252,0.0,13.4,65,0.00,,BKN250,0.00,VWS V14.01,2013-01-07 17:45:00,
2013-01-07 12:00:00,37.2,27.3,28.85,SW,221,0.0,22.1,67,0.00,,BKN250,0.00,VWS V14.01,2013-01-07 18:00:00,
2013-01-07 12:15:00,37.6,27.6,28.85,WSW,243,0.0,22.1,67,0.00,,OVC250,0.00,VWS V14.01,2013-01-07 18:15:00,
2013-01-07 12:30:00,38.5,28.1,28.82,West,261,0.0,16.8,66,0.00,,OVC250,0.00,VWS V14.01,2013-01-07 18:30:00,
2013-01-07 12:45:00,38.5,27.8,28.82,WSW,253,0.0,15.4,65,0.00,,OVC250,0.00,VWS V14.01,2013-01-07 18:45:00,
2013-01-07 13:00:00,38.1,27.4,28.82,SSW,209,0.0,9.4,65,0.00,,OVC250,0.00,VWS V14.01,2013-01-07 19:00:00,
2013-01-07 13:15:00,38.1,27.0,28.82,SSW,210,18.1,24.8,64,0.00,,OVC250,0.00,VWS V14.01,2013-01-07 19:15:00,
2013-01-07 13:30:00,38.1,27.8,28.82,West,267,0.0,19.5,66,0.00,,OVC250,0.00,VWS V14.01,2013-01-07 19:30:00,
2013-01-07 13:45:00,38.1,27.8,28.82,SW,235,0.0,16.8,66,0.00,,OVC250,0.00,VWS V14.01,2013-01-07 19:45:00,
2013-01-07 14:00:00,38.1,28.5,28.82,West,264,0.0,14.1,68,0.00,,OVC250,0.00,VWS V14.01,2013-01-07 20:00:00,
2013-01-07 14:15:00,37.9,27.6,28.82,SSW,207,0.0,10.7,66,0.00,,OVC250,0.00,VWS V14.01,2013-01-07 20:15:00,
2013-01-07 14:30:00,37.9,27.2,28.82,North,357,0.0,9.4,65,0.00,,OVC250,0.00,VWS V14.01,2013-01-07 20:30:00,
2013-01-07 14:45:00,38.1,27.8,28.82,SW,218,0.0,10.7,66,0.00,,OVC250,0.00,VWS V14.01,2013-01-07 20:45:00,
2013-01-07 15:00:00,38.1,27.8,28.82,SW,224,0.0,0.0,66,0.00,,OVC250,0.00,VWS V14.01,2013-01-07 21:00:00,
2013-01-07 15:15:00,37.2,27.3,28.82,SW,223,0.0,0.0,67,0.00,,OVC250,0.00,VWS V14.01,2013-01-07 21:15:00,
2013-01-07 15:30:00,37.0,27.8,28.82,WSW,248,0.0,0.0,69,0.00,,OVC250,0.00,VWS V14.01,2013-01-07 21:30:00,
2013-01-07 15:45:00,36.7,28.2,28.85,SW,228,0.0,0.0,71,0.00,,OVC250,0.00,VWS V14.01,2013-01-07 21:45:00,
2013-01-07 16:00:00,36.5,28.4,28.85,SW,235,0.0,9.4,72,0.00,,OVC250,0.00,VWS V14.01,2013-01-07 22:00:00,
2013-01-07 16:15:00,36.1,28.3,28.85,WSW,248,0.0,0.0,73,0.00,,BKN250,0.00,VWS V14.01,2013-01-07 22:15:00,
2013-01-07 16:30:00,35.8,27.6,28.82,NNW,334,0.0,0.0,72,0.00,,BKN250,0.00,VWS V14.01,2013-01-07 22:30:00,
2013-01-07 16:45:00,35.4,27.6,28.82,NNW,334,0.0,0.0,73,0.00,,BKN250,0.00,VWS V14.01,2013-01-07 22:45:00,
2013-01-07 17:00:00,34.3,26.6,28.82,NNW,334,0.0,0.0,73,0.00,,BKN250,0.00,VWS V14.01,2013-01-07 23:00:00,
2013-01-07 17:15:00,33.4,26.1,28.82,NNW,334,0.0,0.0,74,0.00,,BKN250,0.00,VWS V14.01,2013-01-07 23:15:00,
2013-01-07 17:30:00,32.7,25.7,28.82,NNW,334,0.0,0.0,75,0.00,,BKN250,0.00,VWS V14.01,2013-01-07 23:30:00,
2013-01-07 17:45:00,32.2,25.2,28.82,NNW,334,0.0,0.0,75,0.00,,BKN250,0.00,VWS V14.01,2013-01-07 23:45:00,
2013-01-07 18:00:00,31.6,25.0,28.85,NNW,334,0.0,0.0,76,0.00,,BKN250,0.00,VWS V14.01,2013-01-08 00:00:00,
2013-01-07 18:15:00,31.1,24.4,28.85,NNW,334,0.0,0.0,76,0.00,,BKN250,0.00,VWS V14.01,2013-01-08 00:15:00,
2013-01-07 18:30:00,31.1,24.8,28.85,NNW,334,0.0,0.0,77,0.00,,BKN250,0.00,VWS V14.01,2013-01-08 00:30:00,
2013-01-07 18:45:00,30.9,24.9,28.85,NNW,334,0.0,0.0,78,0.00,,BKN250,0.00,VWS V14.01,2013-01-08 00:45:00,
2013-01-07 19:00:00,31.1,25.4,28.85,NNW,334,0.0,0.0,79,0.00,,BKN250,0.00,VWS V14.01,2013-01-08 01:00:00,
2013-01-07 19:15:00,30.7,25.3,28.82,NNW,334,0.0,0.0,80,0.00,,BKN250,0.00,VWS V14.01,2013-01-08 01:15:00,
2013-01-07 19:30:00,30.2,25.1,28.82,NNW,334,0.0,0.0,81,0.00,,BKN250,0.00,VWS V14.01,2013-01-08 01:30:00,
2013-01-07 19:45:00,29.7,24.6,28.82,NNW,334,0.0,0.0,81,0.00,,BKN250,0.00,VWS V14.01,2013-01-08 01:45:00,
2013-01-07 20:00:00,29.5,24.7,28.82,NNW,334,0.0,0.0,82,0.00,,BKN250,0.00,VWS V14.01,2013-01-08 02:00:00,
2013-01-07 20:15:00,29.3,24.5,28.82,NNW,334,0.0,0.0,82,0.00,,BKN250,0.00,VWS V14.01,2013-01-08 02:15:00,
2013-01-07 20:30:00,29.3,24.8,28.82,NNW,334,0.0,0.0,83,0.00,,BKN250,0.00,VWS V14.01,2013-01-08 02:30:00,
2013-01-07 20:45:00,28.4,23.9,28.82,NNW,334,0.0,0.0,83,0.00,,BKN250,0.00,VWS V14.01,2013-01-08 02:45:00,
2013-01-07 21:00:00,28.4,24.2,28.82,NNW,334,0.0,0.0,84,0.00,,BKN250,0.00,VWS V14.01,2013-01-08 03:00:00,
2013-01-07 21:15:00,27.7,23.5,28.82,NNW,334,0.0,0.0,84,0.00,,SCT250,0.00,VWS V14.01,2013-01-08 03:15:00,
2013-01-07 21:30:00,27.3,23.1,28.82,NNW,334,0.0,0.0,84,0.00,,SCT250,0.00,VWS V14.01,2013-01-08 03:30:00,
2013-01-07 21:45:00,26.8,22.6,28.82,NNW,334,0.0,0.0,84,0.00,,SCT250,0.00,VWS V14.01,2013-01-08 03:45:00,
2013-01-07 22:00:00,26.1,22.2,28.82,NNW,334,0.0,0.0,85,0.00,,SCT250,0.00,VWS V14.01,2013-01-08 04:00:00,
2013-01-07 22:15:00,25.9,22.0,28.79,NNW,334,0.0,0.0,85,0.00,,,0.00,VWS V14.01,2013-01-08 04:15:00,
2013-01-07 22:30:00,25.2,21.3,28.79,NNW,334,0.0,0.0,85,0.00,,,0.00,VWS V14.01,2013-01-08 04:30:00,
2013-01-07 22:45:00,24.8,21.2,28.79,NNW,334,0.0,0.0,86,0.00,,,0.00,VWS V14.01,2013-01-08 04:45:00,
2013-01-07 23:15:00,24.1,20.5,28.79,NNW,334,0.0,0.0,86,0.00,,,0.00,VWS V14.01,2013-01-08 05:15:00,
2013-01-07 23:30:00,23.7,20.1,28.79,NNW,334,0.0,0.0,86,0.00,,,0.00,VWS V14.01,2013-01-08 05:30:00,
2013-01-07 23:45:00,23.5,20.0,28.79,NNW,334,0.0,0.0,86,0.00,,,0.00,VWS V14.01,2013-01-08 05:45:00,